Regional Weather Roundup
Issued by NWS

Home | Current Version | Previous Version | Graphics & Text | Print | Product List | Glossary On
Versions: 1 2 3 4 5 6 7 8 9 10 11 12 13 14 15 16 17 18 19 20 21 22 23 24 25 26 27 28 29 30 31 32 33 34 35 36 37 38 39 40 41 42 43 44 45 46 47 48 49 50
000
ASUS43 KBIS 051102
RWRND

NORTH DAKOTA REGIONAL WEATHER ROUNDUP
NATIONAL WEATHER SERVICE BISMARCK ND
600 AM CDT SUN JUL 05 2015

NOTE: "FAIR" INDICATES FEW OR NO CLOUDS BELOW 12,000 FEET WITH NO
SIGNIFICANT WEATHER AND/OR OBSTRUCTIONS TO VISIBILITY.


NDZ001>003-009>011-017-051200-
NORTHWEST NORTH DAKOTA

CITY           SKY/WX    TMP DP  RH WIND       PRES   REMARKS
WILLISTON      LGT RAIN  65  62  90 N9        29.90F FOG
MINOT          CLOUDY    63  60  90 N12       29.78R
$$

NDZ018>021-031>035-040>046-051200-
SOUTHWEST NORTH DAKOTA

CITY           SKY/WX    TMP DP  RH WIND       PRES   REMARKS
BISMARCK       MOCLDY    67  66  97 E8        29.70S FOG
DICKINSON      MOCLDY    63  60  90 N28G36    29.80R
GARRISON         N/A     66  63  90 N9        29.75R
HETTINGER ARPT PTCLDY    61  60  97 S3        29.74S FOG
$$

NDZ004>008-012>016-024-026-027-054-051200-
NORTHEAST NORTH DAKOTA

CITY           SKY/WX    TMP DP  RH WIND       PRES   REMARKS
GRAND FORKS    MOCLDY    69  66  90 SE14      29.75R
GRND FRKS AFB  MOCLDY    67  65  94 SE15      29.75S
DEVILS LAKE    MOCLDY    66  61  82 NE7       29.74R
$$

NDZ022-023-025-028>030-036>039-047>053-051200-
SOUTHEAST NORTH DAKOTA

CITY           SKY/WX    TMP DP  RH WIND       PRES   REMARKS
FARGO          PTCLDY    71  64  78 SE13      29.76R
JAMESTOWN      PTCLDY    68  65  90 S9        29.73S
$$




USA.gov is the U.S. government's official web portal to all federal, state and local government web resources and services.